Tracking 19248 objects as of 26-Sep-2018
HD Live streaming from Space Station
objects crossing your sky now

FENGYUN 1C DEB

Track FENGYUN 1C DEB now!
10-day predictions


NORAD ID: 32123
Int'l Code: 1999-025CRR
Perigee: 591.8 km
Apogee: 844.7 km
Inclination: 98.9 °
Period: 99.0 minutes
Semi major axis: 7089 km
RCS: 0.0018 m2 (small)
Launch date: May 10, 1999
Source: People's Republic of China (PRC)
Launch site: Taiyaun Space Center, China (TSC)

Note: This is SATELLITE DEBRIS
aabbcc
Your satellite tracking list
Your tracking list is empty




NASA's NSSDC Master Catalog

Two Line Element Set (TLE):
1 32123U 99025CRR 18267.08495644 +.00000176 +00000-0 +45373-4 0  9990
2 32123 098.8915 216.9828 0178342 025.4582 030.4189 14.54456367592589
Source of the keplerian elements: AFSPC